If you wish to contribute or participate in the discussions about articles you are invited to join SKYbrary as a registered user

 Actions

Sary-Arka Airport

From SKYbrary Wiki

UAKK
Airport
ICAO: UAKK – IATA: KGF
Summary
Name Sary-Arka Airport
Region Asia and Pacific
Territory Kazakhstan KZ.gif
Location Karaganda
Serving Karaganda
Elevation 537.972 m
1,765 ft
1,765 ft537.972 m
Coordinates 49° 40' 15.00" N, 73° 20' 4.00" E
Runways
Designator Length Width Surface ROPS
5/23 3301 m10,830.053 ft
60 m196.85 ft
CON yes/yes


METAR
Observation UAKK 281200Z 29006MPS 9999 -SG OVC014 M03/M06 Q1026 R23/850248 NOSIG RMK QFE722/0963
Station Karaganda
Date/Time 28 October 2020 12:00:00
Wind direction 290°
Wind speed kts
Lowest cloud amount overcast
Temperature
Dew point
Humidity 79%
QNH 1026 hPa
Weather condition light snow grains

Description

Sary-Arka Airport is the airport of Karagandy, Kazakhstan. It is located 24 km southeast of the city.